This demonstration page uses our WeatherBlox Daily Observations layout. Learn more.

Left ArrowRight Arrow

34.74481, -87.66753

Hourly Observations for May 6, 2020

Temp ( °F °C ) Dew Point ( °F °C ) Humidity (%) Winds ( mph kmh ) Pressure ( in mb ) Visibility ( mi km ) Precip ( " mm )
12:53 am 00:53 Clear 58 14.4 54 12.2 87 87 Calm 29.99 1016 10 16 0.00 0.00
1:53 am 01:53 Clear 57 13.9 53 11.7 87 87 Calm 29.98 1015 10 16 0.00 0.00
2:53 am 02:53 Clear 55 12.8 52 11.1 90 90 WNW 3 6 29.98 1015 10 16 0.00 0.00
3:53 am 03:53 Clear 54 12.2 51 10.6 90 90 WNW 5 7 29.97 1015 10 16 0.00 0.00
4:53 am 04:53 Clear 54 12.2 50 10 87 87 Calm 29.96 1014 10 16 0.00 0.00
5:53 am 05:53 Clear 54 12.2 48 8.9 80 80 WNW 8 13 29.96 1015 10 16 0.00 0.00
6:53 am 06:53 Sunny 57 13.9 48 8.9 72 72 NW 8 13 29.99 1016 10 16 0.00 0.00
7:53 am 07:53 Sunny 60 15.6 45 7.2 58 58 WNW 13 20 30.01 1016 10 16 0.00 0.00
8:53 am 08:53 Sunny 61 16.1 43 6.1 52 52 NW 20 31 30.03 1017 10 16 0.00 0.00
9:53 am 09:53 Mostly Sunny 64 17.8 44 6.7 48 48 NW 18 30 30.04 1017 10 16 0.00 0.00
10:53 am 10:53 Mostly Cloudy 63 17.2 42 5.6 47 47 NNW 20 31 30.07 1018 10 16 0.00 0.00
11:53 am 11:53 Cloudy 62 16.7 44 6.7 52 52 NNW 15 24 30.08 1019 10 16 0.00 0.00
12:53 pm 12:53 Cloudy 62 16.7 44 6.7 52 52 N 7 11 30.08 1019 10 16 0.00 0.00
1:53 pm 13:53 Cloudy 61 16.1 45 7.2 56 56 N 10 17 30.10 1019 10 16 0.00 0.00
2:53 pm 14:53 Mostly Cloudy 61 16.1 41 5 48 48 NNW 22 35 30.10 1019 10 16 0.00 0.00
3:53 pm 15:53 Mostly Cloudy 61 16.1 39 3.9 44 44 N 13 20 30.10 1019 10 16 0.00 0.00
4:53 pm 16:53 Cloudy 58 14.4 39 3.9 50 50 N 12 19 30.13 1020 10 16 0.00 0.00
5:53 pm 17:53 Mostly Cloudy 58 14.4 38 3.3 48 48 N 8 13 30.14 1021 10 16 0.00 0.00
6:53 pm 18:53 Mostly Sunny 58 14.4 38 3.3 48 48 NNW 9 15 30.14 1021 10 16 0.00 0.00
7:53 pm 19:53 Clear 54 12.2 38 3.3 55 55 NW 3 6 30.14 1021 10 16 0.00 0.00
8:53 pm 20:53 Clear 52 11.1 40 4.4 64 64 WNW 3 6 30.16 1021 10 16 0.00 0.00
9:53 pm 21:53 Clear 52 11.1 40 4.4 64 64 Calm 30.16 1021 10 16 0.00 0.00
10:53 pm 22:53 Clear 50 10 41 5 71 71 WNW 3 6 30.16 1022 10 16 0.00 0.00
11:53 pm 23:53 Clear 48 8.9 41 5 77 77 WNW 6 9 30.17 1022 10 16 0.00 0.00

Powered by AerisWeather